TimeWET,TemperatureF,Dew PointF,Humidity,Sea Level PressureIn,VisibilityMPH,Wind Direction,Wind SpeedMPH,Gust SpeedMPH,PrecipitationIn,Events,Conditions,WindDirDegrees,DateUTC
12:00 AM,69,59,61,30.04,6,ENE,5.8,,,,,70,2012-10-13 00:00:00
12:00 AM,69.8,59.0,68,30.09,-9999.0,ENE,5.8,-,N/A,,Clear,70,2012-10-13 00:00:00
12:30 AM,69.8,59.0,68,30.06,-9999.0,ENE,6.9,-,N/A,,Clear,60,2012-10-13 00:30:00
1:00 AM,68.0,59.0,73,30.06,-9999.0,NE,5.8,-,N/A,,Clear,50,2012-10-13 01:00:00
1:30 AM,68.0,59.0,73,30.06,-9999.0,NNE,5.8,-,N/A,,Clear,30,2012-10-13 01:30:00
2:00 AM,68.0,59.0,73,30.06,-9999.0,NNE,5.8,-,N/A,,Clear,30,2012-10-13 02:00:00
2:30 AM,66.2,59.0,78,30.06,-9999.0,NNE,4.6,-,N/A,,Clear,20,2012-10-13 02:30:00
3:00 AM,67,58,67,30.03,6,NNE,4.6,,,,,30,2012-10-13 03:00:00
3:00 AM,66.2,59.0,78,30.06,-9999.0,NNE,4.6,-,N/A,,Clear,30,2012-10-13 03:00:00
3:30 AM,66.2,59.0,78,30.06,-9999.0,North,4.6,-,N/A,,Clear,10,2012-10-13 03:30:00
4:00 AM,66.2,59.0,78,30.06,-9999.0,North,3.5,-,N/A,,Clear,10,2012-10-13 04:00:00
4:30 AM,64.4,57.2,77,30.06,-9999.0,NNE,3.5,-,N/A,,Clear,30,2012-10-13 04:30:00
5:00 AM,64.4,57.2,77,30.06,-9999.0,NNE,3.5,-,N/A,,Clear,30,2012-10-13 05:00:00
5:30 AM,64.4,57.2,77,30.06,-9999.0,East,2.3,-,N/A,,Clear,80,2012-10-13 05:30:00
6:00 AM,63,57,76,30.05,6,NE,3.5,,,,,50,2012-10-13 06:00:00
6:00 AM,62.6,57.2,82,30.06,-9999.0,ENE,3.5,-,N/A,,Clear,60,2012-10-13 06:00:00
6:30 AM,64.4,57.2,77,30.09,-9999.0,North,5.8,-,N/A,,Clear,10,2012-10-13 06:30:00
7:00 AM,62.6,57.2,82,30.09,6.2,North,3.5,-,N/A,,Partly Cloudy,10,2012-10-13 07:00:00
7:30 AM,64.4,57.2,77,30.09,6.2,Variable,2.3,-,N/A,,Partly Cloudy,0,2012-10-13 07:30:00
8:00 AM,66.2,55.4,68,30.09,6.2,NE,4.6,-,N/A,,Partly Cloudy,40,2012-10-13 08:00:00
8:30 AM,68.0,57.2,68,30.09,6.2,ENE,3.5,-,N/A,,Partly Cloudy,70,2012-10-13 08:30:00
9:00 AM,68.0,57.2,68,30.09,6.2,NNE,3.5,-,N/A,,Partly Cloudy,20,2012-10-13 09:00:00
10:00 AM,69.8,57.2,64,30.09,6.2,North,4.6,-,N/A,,Partly Cloudy,350,2012-10-13 10:00:00
11:00 AM,73.4,57.2,57,30.09,6.2,NNW,4.6,-,N/A,,Partly Cloudy,330,2012-10-13 11:00:00
11:30 AM,75.2,55.4,50,30.09,6.2,NW,5.8,-,N/A,,Partly Cloudy,310,2012-10-13 11:30:00
12:00 PM,76,55,37,30.01,6,NNW,6.9,,,,Scattered Clouds,340,2012-10-13 12:00:00
12:00 PM,75.2,55.4,50,30.06,6.2,North,6.9,-,N/A,,Partly Cloudy,350,2012-10-13 12:00:00
12:30 PM,77.0,55.4,47,30.06,6.2,NNW,5.8,-,N/A,,Partly Cloudy,340,2012-10-13 12:30:00
1:00 PM,77.0,55.4,47,30.04,6.2,NNW,6.9,-,N/A,,Partly Cloudy,340,2012-10-13 13:00:00
1:30 PM,78.8,55.4,44,30.04,6.2,Variable,4.6,-,N/A,,Scattered Clouds,0,2012-10-13 13:30:00
2:00 PM,80.6,55.4,42,30.01,6.2,NNE,3.5,-,N/A,,Scattered Clouds,20,2012-10-13 14:00:00
2:30 PM,80.6,55.4,42,30.01,6.2,NNE,4.6,-,N/A,,Scattered Clouds,20,2012-10-13 14:30:00
3:00 PM,80,54,30,29.93,6,NW,4.6,,,,Partly Cloudy,320,2012-10-13 15:00:00
3:00 PM,80.6,55.4,42,30.01,6.2,North,5.8,-,N/A,,Scattered Clouds,360,2012-10-13 15:00:00
3:30 PM,80.6,53.6,39,30.01,6.2,NNE,4.6,-,N/A,,Scattered Clouds,20,2012-10-13 15:30:00
4:00 PM,80.6,53.6,39,30.01,6.2,North,3.5,-,N/A,,Scattered Clouds,360,2012-10-13 16:00:00
4:30 PM,80.6,53.6,39,30.01,6.2,ENE,4.6,-,N/A,,Scattered Clouds,70,2012-10-13 16:30:00
5:00 PM,80.6,51.8,37,30.01,6.2,WNW,5.8,-,N/A,,Scattered Clouds,300,2012-10-13 17:00:00
5:30 PM,80.6,48.2,32,30.01,6.2,North,8.1,-,N/A,,Scattered Clouds,10,2012-10-13 17:30:00
6:00 PM,79,46,21,29.93,6,North,8.1,,,,Partly Cloudy,0,2012-10-13 18:00:00
6:00 PM,78.8,46.4,32,30.01,6.2,North,8.1,-,N/A,,Scattered Clouds,360,2012-10-13 18:00:00
6:30 PM,78.8,46.4,32,30.01,6.2,North,8.1,-,N/A,,Scattered Clouds,10,2012-10-13 18:30:00
7:00 PM,77.0,50.0,39,30.01,6.2,North,9.2,-,N/A,,Scattered Clouds,350,2012-10-13 19:00:00
7:30 PM,75.2,51.8,44,30.01,6.2,North,11.5,-,N/A,,Scattered Clouds,10,2012-10-13 19:30:00
8:00 PM,75.2,53.6,47,30.01,6.2,North,10.4,-,N/A,,Partly Cloudy,10,2012-10-13 20:00:00
8:30 PM,71.6,53.6,53,30.01,6.2,North,11.5,-,N/A,,Partly Cloudy,10,2012-10-13 20:30:00
9:00 PM,70,54,47,29.99,6,NNE,12.7,,,,Scattered Clouds,20,2012-10-13 21:00:00
9:00 PM,69.8,55.4,60,30.04,6.2,NNE,12.7,-,N/A,,Partly Cloudy,20,2012-10-13 21:00:00
10:00 PM,68.0,53.6,60,30.04,6.2,NE,8.1,-,N/A,,Partly Cloudy,50,2012-10-13 22:00:00
10:30 PM,68.0,55.4,64,30.04,6.2,NE,9.2,-,N/A,,Partly Cloudy,40,2012-10-13 22:30:00
11:00 PM,68.0,53.6,60,30.04,6.2,ENE,6.9,-,N/A,,Partly Cloudy,60,2012-10-13 23:00:00
11:30 PM,66.2,55.4,68,30.01,6.2,NE,8.1,-,N/A,,Partly Cloudy,50,2012-10-13 23:30:00